Downstream station:
SHEF ID: ENWK1 CROOKED C NR ENGLEWOOD, KS
STATION TYPE:
Regulating: Stage = 6.50, Flow = 243
PRECIP STAGE RIV-FLOW BAT-LOAD
in ft cfs volt
Ccp-Rev Ccp-Rev Ccp-Rev Ccp-Rev
(US/Central)
01/16 00:00 0.00 2.61 6 12.77
01/16 01:00 0.00 2.66 7 12.71
01/16 02:00 0.00 2.70 7 12.71
01/16 03:00 0.00 2.74 8 12.65
01/16 04:00 0.00 2.78 9 12.65
01/16 05:00 0.00 2.80 9 12.60
01/16 06:00 0.00 2.78 9 12.54
01/16 07:00 0.00 2.80 9 12.48
01/16 08:00 0.00 2.82 9 12.42
01/16 09:00 0.00 2.82 9 13.83
01/16 10:00 0.00 2.78 9 14.88
01/16 11:00 0.00 2.64 6 14.65
01/16 12:00 0.00 2.35 3 14.41
01/16 13:00 0.00 2.33 2 14.30
01/16 14:00 0.00 2.32 2 14.12
01/16 15:00 0.00 2.36 3 14.12
01/16 16:00 0.00 2.42 3 14.12
01/16 17:00 0.00 2.44 4 14.00
01/16 18:00 0.00 2.43 3 13.77
01/16 19:00 0.00 2.42 3 13.18
01/16 20:00 0.00 2.42 3 13.00
01/16 21:00 0.00 2.41 3 13.00
01/16 22:00 0.00 2.42 3 12.95
01/16 23:00 ---- ---- ---- ----